| time (UTC) | temp C | wind direction | speed KPH | gust KPH | rain 1hr cm | rain 24hr cm | rain mn cm | humidity % | barometer mb |
| 20260510202557 | 15 | 28 | 3.2 | 6.4 | 0.00 | 0.36 | 0.00 | 100 | 1013.0 |
| 20260510202034 | 15 | 78 | 3.2 | 8.0 | 0.00 | 0.36 | 0.00 | 99 | 1013.0 |
| 20260510201531 | 16 | 25 | 1.6 | 14.5 | 0.00 | 0.36 | 0.00 | 99 | 1012.8 |
| 20260510201027 | 16 | 126 | 3.2 | 14.5 | 0.00 | 0.36 | 0.00 | 98 | 1012.7 |
| 20260510200544 | 16 | 136 | 3.2 | 11.3 | 0.00 | 0.36 | 0.00 | 98 | 1012.7 |
| 20260510200042 | 16 | 131 | 3.2 | 16.1 | 0.00 | 0.36 | 0.00 | 97 | 1012.6 |
| 20260510195539 | 16 | 130 | 4.8 | 16.1 | 0.00 | 0.81 | 0.00 | 98 | 1012.5 |
| 20260510195043 | 16 | 105 | 6.4 | 14.5 | 0.00 | 0.81 | 0.00 | 95 | 1012.6 |
| 20260510194537 | 17 | 158 | 6.4 | 14.5 | 0.00 | 0.81 | 0.00 | 93 | 1012.6 |
| 20260510194025 | 17 | 58 | 4.8 | 14.5 | 0.00 | 0.81 | 0.00 | 92 | 1012.5 |
| 20260510193541 | 18 | 78 | 6.4 | 16.1 | 0.00 | 0.81 | 0.00 | 91 | 1012.6 |
| 20260510193040 | 18 | 140 | 4.8 | 16.1 | 0.00 | 0.81 | 0.00 | 92 | 1012.6 |
| 20260510192540 | 18 | 120 | 3.2 | 12.9 | 0.00 | 0.81 | 0.00 | 87 | 1012.6 |
| 20260510192029 | 19 | 111 | 4.8 | 12.9 | 0.00 | 0.81 | 0.00 | 84 | 1012.5 |
| 20260510191532 | 19 | 127 | 3.2 | 17.7 | 0.00 | 0.81 | 0.00 | 81 | 1012.4 |
| 20260510191044 | 19 | 163 | 6.4 | 17.7 | 0.00 | 0.81 | 0.00 | 82 | 1012.4 |
| 20260510190604 | 19 | 67 | 3.2 | 9.7 | 0.00 | 0.81 | 0.00 | 84 | 1012.4 |
| 20260510190040 | 19 | 40 | 4.8 | 11.3 | 0.00 | 0.81 | 0.00 | 86 | 1012.5 |
| 20260510185525 | 19 | 92 | 3.2 | 11.3 | 0.00 | 0.84 | 0.00 | 90 | 1012.5 |
| 20260510185043 | 19 | 145 | 3.2 | 11.3 | 0.00 | 0.84 | 0.00 | 91 | 1012.4 |
| 20260510184559 | 18 | 140 | 4.8 | 12.9 | 0.00 | 0.84 | 0.00 | 95 | 1012.5 |
| 20260510184035 | 18 | 213 | 6.4 | 12.9 | 0.00 | 0.84 | 0.00 | 90 | 1012.6 |
| 20260510183534 | 19 | 119 | 6.4 | 17.7 | 0.00 | 0.84 | 0.00 | 92 | 1012.6 |
| 20260510183052 | 19 | 141 | 3.2 | 14.5 | 0.00 | 0.84 | 0.00 | 93 | 1012.5 |
| 20260510182556 | 19 | 116 | 3.2 | 11.3 | 0.00 | 0.84 | 0.00 | 93 | 1012.6 |
| 20260510182029 | 20 | 118 | 4.8 | 12.9 | 0.00 | 0.84 | 0.00 | 87 | 1012.7 |
| 20260510181525 | 20 | 106 | 4.8 | 16.1 | 0.00 | 0.84 | 0.00 | 89 | 1012.7 |
| 20260510181103 | 20 | 102 | 4.8 | 16.1 | 0.00 | 0.84 | 0.00 | 88 | 1012.7 |
| 20260510180540 | 20 | 139 | 6.4 | 12.9 | 0.00 | 0.84 | 0.00 | 89 | 1012.6 |
| 20260510180038 | 20 | 67 | 4.8 | 20.9 | 0.00 | 0.84 | 0.00 | 94 | 1012.6 |
| 20260510175536 | 20 | 91 | 4.8 | 20.9 | 0.00 | 0.84 | 0.00 | 89 | 1012.5 |
| 20260510175056 | 19 | 139 | 4.8 | 12.9 | 0.00 | 0.84 | 0.00 | 93 | 1012.6 |
| 20260510174527 | 19 | 346 | 4.8 | 12.9 | 0.00 | 0.84 | 0.00 | 89 | 1012.8 |
| 20260510174033 | 20 | 155 | 6.4 | 14.5 | 0.00 | 0.84 | 0.00 | 94 | 1012.7 |
| 20260510173531 | 20 | 171 | 4.8 | 14.5 | 0.00 | 0.84 | 0.00 | 90 | 1012.5 |
| 20260510173033 | 20 | 69 | 3.2 | 6.4 | 0.00 | 0.84 | 0.00 | 92 | 1012.4 |
| 20260510172029 | 18 | 142 | 6.4 | 11.3 | 0.00 | 0.84 | 0.00 | 92 | 1012.5 |
| 20260510171532 | 18 | 26 | 1.6 | 14.5 | 0.00 | 0.84 | 0.00 | 93 | 1012.5 |
| 20260510171032 | 18 | 78 | 1.6 | 14.5 | 0.00 | 0.84 | 0.00 | 97 | 1012.4 |
| 20260510170551 | 18 | 336 | 4.8 | 16.1 | 0.00 | 0.84 | 0.00 | 94 | 1012.5 |
| 20260510170027 | 18 | 105 | 8.0 | 16.1 | 0.00 | 0.84 | 0.00 | 94 | 1012.6 |
| 20260510165526 | 18 | 86 | 4.8 | 16.1 | 0.00 | 0.86 | 0.00 | 96 | 1012.5 |
| 20260510165036 | 18 | 336 | 4.8 | 14.5 | 0.00 | 0.86 | 0.00 | 96 | 1012.6 |
| 20260510164531 | 18 | 123 | 4.8 | 11.3 | 0.00 | 0.86 | 0.00 | 94 | 1012.6 |
| 20260510164033 | 17 | 137 | 4.8 | 11.3 | 0.00 | 0.86 | 0.00 | 95 | 1012.7 |
| 20260510163043 | 18 | 183 | 4.8 | 12.9 | 0.00 | 0.86 | 0.00 | 93 | 1012.8 |
| 20260510162604 | 17 | 140 | 4.8 | 16.1 | 0.00 | 0.86 | 0.00 | 95 | 1012.8 |
| 20260510162104 | 17 | 101 | 6.4 | 16.1 | 0.00 | 0.86 | 0.00 | 100 | 1013.0 |
| 20260510161528 | 17 | 78 | 3.2 | 14.5 | 0.00 | 0.86 | 0.00 | 100 | 1012.9 |
| 20260510161047 | 17 | 144 | 8.0 | 11.3 | 0.00 | 0.86 | 0.00 | 98 | 1012.9 |
| 20260510160527 | 17 | 85 | 4.8 | 11.3 | 0.00 | 0.86 | 0.00 | 99 | 1012.8 |
| 20260510160026 | 17 | 101 | 3.2 | 4.8 | 0.00 | 0.86 | 0.00 | 97 | 1012.8 |
| 20260510155530 | 18 | 134 | 3.2 | 9.7 | 0.00 | 0.86 | 0.00 | 96 | 1012.8 |
| 20260510155031 | 17 | 146 | 4.8 | 9.7 | 0.00 | 0.86 | 0.00 | 100 | 1012.9 |
| 20260510154532 | 16 | 117 | 3.2 | 11.3 | 0.00 | 0.86 | 0.00 | 100 | 1012.9 |
| 20260510154052 | 17 | 163 | 3.2 | 14.5 | 0.00 | 0.86 | 0.00 | 100 | 1013.1 |
| 20260510153533 | 17 | 105 | 3.2 | 14.5 | 0.00 | 0.86 | 0.00 | 99 | 1012.9 |
| 20260510153033 | 17 | 94 | 1.6 | 11.3 | 0.00 | 0.86 | 0.00 | 99 | 1013.1 |
| 20260510152534 | 17 | 234 | 6.4 | 14.5 | 0.00 | 0.86 | 0.00 | 96 | 1013.1 |
| 20260510152055 | 17 | 130 | 3.2 | 14.5 | 0.00 | 0.86 | 0.00 | 98 | 1013.1 |
| 20260510151535 | 16 | 131 | 4.8 | 9.7 | 0.00 | 0.86 | 0.00 | 99 | 1013.2 |
| 20260510151035 | 16 | 5 | 3.2 | 11.3 | 0.00 | 0.86 | 0.00 | 98 | 1013.2 |
| 20260510150537 | 16 | 64 | 3.2 | 14.5 | 0.00 | 0.86 | 0.00 | 100 | 1013.2 |
| 20260510150037 | 16 | 209 | 3.2 | 14.5 | 0.00 | 0.86 | 0.00 | 98 | 1013.2 |
| 20260510145538 | 16 | 122 | 4.8 | 9.7 | 0.00 | 0.86 | 0.00 | 100 | 1013.1 |
| 20260510145042 | 16 | 149 | 3.2 | 9.7 | 0.00 | 0.86 | 0.00 | 98 | 1013.1 |
| 20260510144543 | 16 | 155 | 3.2 | 12.9 | 0.00 | 0.86 | 0.00 | 98 | 1013.0 |
| 20260510144044 | 16 | 139 | 4.8 | 12.9 | 0.00 | 0.86 | 0.00 | 98 | 1013.0 |
| 20260510143035 | 16 | 136 | 4.8 | 12.9 | 0.00 | 0.86 | 0.00 | 97 | 1012.9 |
| 20260510142536 | 16 | 211 | 1.6 | 14.5 | 0.00 | 0.86 | 0.00 | 100 | 1012.9 |
| 20260510142036 | 15 | 114 | 6.4 | 14.5 | 0.00 | 0.86 | 0.00 | 99 | 1012.9 |
| 20260510141537 | 15 | 142 | 3.2 | 14.5 | 0.00 | 0.86 | 0.00 | 99 | 1013.0 |
| 20260510141037 | 15 | 213 | 3.2 | 14.5 | 0.00 | 0.86 | 0.00 | 99 | 1013.0 |
| 20260510140537 | 15 | 145 | 4.8 | 14.5 | 0.00 | 0.86 | 0.00 | 100 | 1013.1 |
| 20260510140059 | 14 | 105 | 6.4 | 14.5 | 0.00 | 0.86 | 0.00 | 100 | 1013.0 |
| 20260510135537 | 14 | 147 | 3.2 | 9.7 | 0.00 | 0.86 | 0.00 | 99 | 1012.9 |
| 20260510135038 | 14 | 161 | 6.4 | 11.3 | 0.00 | 0.86 | 0.00 | 100 | 1012.9 |
| 20260510134538 | 13 | 119 | 3.2 | 9.7 | 0.00 | 0.86 | 0.00 | 100 | 1013.0 |
| 20260510134038 | 13 | 99 | 1.6 | 11.3 | 0.00 | 0.86 | 0.00 | 100 | 1012.8 |
| 20260510133538 | 12 | 153 | 3.2 | 11.3 | 0.00 | 0.86 | 0.00 | 100 | 1012.8 |
| 20260510133043 | 12 | 109 | 1.6 | 12.9 | 0.00 | 0.86 | 0.00 | 100 | 1012.8 |
| 20260510132544 | 12 | 97 | 1.6 | 12.9 | 0.00 | 0.86 | 0.00 | 100 | 1012.7 |
| 20260510132105 | 12 | 113 | 1.6 | 6.4 | 0.00 | 0.86 | 0.00 | 100 | 1012.8 |
| 20260510131544 | 11 | 110 | 3.2 | 4.8 | 0.00 | 0.86 | 0.00 | 100 | 1012.9 |
| 20260510131105 | 11 | 138 | 1.6 | 4.8 | 0.00 | 0.86 | 0.00 | 100 | 1012.8 |
| 20260510130543 | 11 | 140 | 1.6 | 4.8 | 0.00 | 0.86 | 0.00 | 100 | 1012.8 |
| 20260510130042 | 11 | 140 | 3.2 | 4.8 | 0.00 | 0.86 | 0.00 | 100 | 1012.8 |
| 20260510125544 | 11 | 160 | 1.6 | 3.2 | 0.00 | 0.86 | 0.00 | 100 | 1013.0 |
| 20260510125024 | 11 | 160 | 1.6 | 4.8 | 0.00 | 0.86 | 0.00 | 100 | 1012.8 |
| 20260510124525 | 11 | 169 | 3.2 | 4.8 | 0.00 | 0.86 | 0.00 | 100 | 1012.6 |
| 20260510124044 | 11 | 125 | 0.0 | 4.8 | 0.00 | 0.86 | 0.00 | 100 | 1012.6 |
| 20260510123543 | 11 | 124 | 0.0 | 3.2 | 0.00 | 0.86 | 0.00 | 100 | 1012.6 |
| 20260510123024 | 11 | 123 | 0.0 | 3.2 | 0.00 | 0.86 | 0.00 | 100 | 1012.6 |
| 20260510122525 | 11 | 123 | 1.6 | 4.8 | 0.00 | 0.86 | 0.00 | 100 | 1012.5 |
| 20260510122029 | 11 | 123 | 1.6 | 4.8 | 0.00 | 0.86 | 0.00 | 100 | 1012.5 |
| 20260510121528 | 11 | 123 | 1.6 | 6.4 | 0.00 | 0.86 | 0.00 | 100 | 1012.5 |
| 20260510121029 | 11 | 123 | 1.6 | 6.4 | 0.00 | 0.86 | 0.00 | 100 | 1012.5 |
| 20260510120549 | 11 | 123 | 3.2 | 6.4 | 0.00 | 0.86 | 0.00 | 100 | 1012.4 |
| 20260510120029 | 11 | 115 | 3.2 | 4.8 | 0.00 | 0.86 | 0.00 | 100 | 1012.4 |
| 20260510115529 | 10 | 115 | 0.0 | 3.2 | 0.00 | 0.86 | 0.00 | 100 | 1012.4 |
| 20260510115030 | 10 | 115 | 1.6 | 4.8 | 0.00 | 0.86 | 0.00 | 100 | 1012.4 |
| 20260510114527 | 10 | 115 | 1.6 | 4.8 | 0.00 | 0.86 | 0.00 | 100 | 1012.4 |
| 20260510114028 | 10 | 114 | 0.0 | 3.2 | 0.00 | 0.86 | 0.00 | 100 | 1012.4 |
| 20260510113527 | 10 | 114 | 0.0 | 3.2 | 0.00 | 0.86 | 0.00 | 100 | 1012.3 |
| 20260510113028 | 9 | 114 | 0.0 | 1.6 | 0.00 | 0.86 | 0.00 | 100 | 1012.2 |
| 20260510112528 | 9 | 114 | 0.0 | 1.6 | 0.00 | 0.86 | 0.00 | 100 | 1012.2 |
| 20260510112029 | 9 | 114 | 0.0 | 1.6 | 0.00 | 0.86 | 0.00 | 100 | 1012.1 |
| 20260510111529 | 9 | 114 | 0.0 | 3.2 | 0.00 | 0.86 | 0.00 | 100 | 1012.0 |
| 20260510111033 | 9 | 114 | 0.0 | 4.8 | 0.00 | 0.86 | 0.00 | 100 | 1011.9 |
| 20260510110554 | 9 | 115 | 1.6 | 4.8 | 0.00 | 0.86 | 0.00 | 100 | 1012.0 |
| 20260510110033 | 9 | 114 | 0.0 | 3.2 | 0.00 | 0.86 | 0.00 | 100 | 1012.1 |
| 20260510105531 | 9 | 146 | 0.0 | 3.2 | 0.00 | 0.89 | 0.00 | 100 | 1012.1 |
| 20260510105031 | 9 | 146 | 1.6 | 3.2 | 0.00 | 0.89 | 0.00 | 100 | 1011.9 |
| 20260510104529 | 9 | 146 | 1.6 | 6.4 | 0.00 | 0.89 | 0.00 | 100 | 1011.8 |
| 20260510104051 | 9 | 146 | 1.6 | 6.4 | 0.00 | 0.89 | 0.00 | 100 | 1011.9 |
| 20260510103529 | 9 | 149 | 0.0 | 3.2 | 0.00 | 0.89 | 0.00 | 100 | 1011.9 |
| 20260510103031 | 9 | 149 | 0.0 | 8.0 | 0.00 | 0.89 | 0.00 | 100 | 1011.8 |
| 20260510102529 | 9 | 181 | 1.6 | 8.0 | 0.00 | 0.89 | 0.00 | 100 | 1011.7 |
| 20260510102031 | 9 | 97 | 1.6 | 4.8 | 0.00 | 0.89 | 0.00 | 100 | 1011.6 |
| 20260510101532 | 9 | 97 | 1.6 | 4.8 | 0.00 | 0.89 | 0.00 | 100 | 1011.5 |
| 20260510101052 | 9 | 97 | 3.2 | 3.2 | 0.00 | 0.89 | 0.00 | 100 | 1011.5 |
| 20260510100533 | 9 | 96 | 0.0 | 3.2 | 0.00 | 0.89 | 0.00 | 100 | 1011.6 |
| 20260510100032 | 8 | 96 | 1.6 | 3.2 | 0.00 | 0.89 | 0.00 | 100 | 1011.6 |
| 20260510095533 | 9 | 148 | 0.0 | 1.6 | 0.00 | 0.94 | 0.00 | 100 | 1011.4 |
| 20260510095054 | 8 | 148 | 0.0 | 4.8 | 0.00 | 0.94 | 0.00 | 100 | 1011.2 |
| 20260510094537 | 8 | 148 | 1.6 | 4.8 | 0.00 | 0.94 | 0.00 | 100 | 1011.1 |
| 20260510094038 | 8 | 175 | 1.6 | 4.8 | 0.00 | 0.94 | 0.00 | 100 | 1011.2 |
| 20260510093558 | 8 | 178 | 1.6 | 9.7 | 0.00 | 0.94 | 0.00 | 100 | 1011.2 |
| 20260510093058 | 8 | 112 | 1.6 | 4.8 | 0.00 | 0.94 | 0.00 | 100 | 1011.1 |
| 20260510092537 | 9 | 111 | 1.6 | 4.8 | 0.00 | 0.94 | 0.00 | 100 | 1011.4 |
| 20260510092038 | 8 | 111 | 0.0 | 0.0 | 0.00 | 0.94 | 0.00 | 100 | 1011.4 |
| 20260510091538 | 8 | 111 | 0.0 | 0.0 | 0.00 | 0.94 | 0.00 | 100 | 1011.5 |
| 20260510091039 | 8 | 111 | 0.0 | 0.0 | 0.00 | 0.94 | 0.00 | 100 | 1011.4 |
| 20260510090539 | 8 | 111 | 0.0 | 0.0 | 0.00 | 0.94 | 0.00 | 100 | 1011.4 |
| 20260510090040 | 8 | 111 | 0.0 | 0.0 | 0.00 | 0.94 | 0.00 | 100 | 1011.4 |
| 20260510085541 | 8 | 111 | 0.0 | 3.2 | 0.00 | 1.02 | 0.00 | 100 | 1011.3 |
| 20260510085040 | 8 | 111 | 1.6 | 3.2 | 0.00 | 1.02 | 0.00 | 100 | 1011.3 |
| 20260510084601 | 8 | 111 | 1.6 | 3.2 | 0.00 | 1.02 | 0.00 | 100 | 1011.4 |
| 20260510084041 | 8 | 111 | 1.6 | 4.8 | 0.00 | 1.02 | 0.00 | 100 | 1011.6 |
| 20260510083602 | 8 | 103 | 1.6 | 4.8 | 0.00 | 1.02 | 0.00 | 100 | 1011.7 |
| 20260510083039 | 8 | 103 | 1.6 | 4.8 | 0.00 | 1.02 | 0.00 | 100 | 1011.7 |
| 20260510082534 | 8 | 103 | 1.6 | 3.2 | 0.00 | 1.02 | 0.00 | 100 | 1011.7 |
| 20260510082034 | 8 | 103 | 0.0 | 3.2 | 0.00 | 1.02 | 0.00 | 100 | 1011.8 |
| 20260510081550 | 8 | 103 | 0.0 | 3.2 | 0.00 | 1.02 | 0.00 | 100 | 1011.7 |
| 20260510081046 | 8 | 103 | 0.0 | 3.2 | 0.00 | 1.02 | 0.00 | 100 | 1011.6 |
| 20260510080024 | 8 | 102 | 0.0 | 4.8 | 0.00 | 1.02 | 0.00 | 100 | 1011.7 |
| 20260510075524 | 8 | 102 | 3.2 | 4.8 | 0.00 | 1.02 | 0.00 | 100 | 1011.6 |
| 20260510075040 | 9 | 101 | 1.6 | 4.8 | 0.00 | 1.02 | 0.00 | 100 | 1011.8 |
| 20260510074537 | 9 | 101 | 0.0 | 3.2 | 0.00 | 1.02 | 0.00 | 100 | 1011.8 |
| 20260510074032 | 9 | 101 | 0.0 | 6.4 | 0.00 | 1.02 | 0.00 | 100 | 1011.8 |
| 20260510073529 | 9 | 101 | 1.6 | 6.4 | 0.00 | 1.02 | 0.00 | 100 | 1011.8 |
| 20260510073106 | 9 | 101 | 1.6 | 4.8 | 0.00 | 1.02 | 0.00 | 100 | 1011.7 |
| 20260510072540 | 9 | 156 | 0.0 | 4.8 | 0.00 | 1.02 | 0.00 | 100 | 1011.5 |
| 20260510072035 | 9 | 158 | 0.0 | 4.8 | 0.00 | 1.02 | 0.00 | 100 | 1011.4 |
| 20260510071532 | 9 | 150 | 0.0 | 4.8 | 0.00 | 1.02 | 0.00 | 100 | 1011.3 |
| 20260510071047 | 9 | 153 | 1.6 | 4.8 | 0.00 | 1.02 | 0.00 | 100 | 1011.2 |
| 20260510070543 | 9 | 135 | 0.0 | 3.2 | 0.00 | 1.02 | 0.00 | 100 | 1011.3 |
| 20260510070037 | 9 | 137 | 0.0 | 6.4 | 0.00 | 1.02 | 0.00 | 100 | 1011.2 |
| 20260510065559 | 9 | 137 | 1.6 | 6.4 | 0.00 | 1.02 | 0.00 | 100 | 1011.3 |
| 20260510065038 | 9 | 119 | 0.0 | 4.8 | 0.00 | 1.02 | 0.00 | 100 | 1011.3 |
| 20260510064539 | 9 | 119 | 1.6 | 4.8 | 0.00 | 1.02 | 0.00 | 100 | 1011.5 |
| 20260510063528 | 9 | 118 | 0.0 | 3.2 | 0.00 | 1.02 | 0.00 | 100 | 1011.4 |
| 20260510063029 | 9 | 118 | 1.6 | 4.8 | 0.00 | 1.02 | 0.00 | 100 | 1011.5 |
| 20260510062529 | 9 | 117 | 0.0 | 3.2 | 0.00 | 1.02 | 0.00 | 100 | 1011.4 |
| 20260510062030 | 9 | 117 | 0.0 | 8.0 | 0.00 | 1.02 | 0.00 | 100 | 1011.2 |
| 20260510061530 | 9 | 118 | 3.2 | 8.0 | 0.00 | 1.02 | 0.00 | 100 | 1011.3 |
| 20260510061035 | 9 | 132 | 0.0 | 3.2 | 0.00 | 1.02 | 0.00 | 100 | 1011.3 |
| 20260510060536 | 9 | 132 | 0.0 | 4.8 | 0.00 | 1.02 | 0.00 | 100 | 1011.3 |
| 20260510060037 | 9 | 132 | 0.0 | 4.8 | 0.00 | 1.02 | 0.00 | 100 | 1011.1 |
| 20260510055537 | 9 | 132 | 0.0 | 4.8 | 0.00 | 1.02 | 0.00 | 100 | 1011.0 |
| 20260510055038 | 9 | 130 | 0.0 | 0.0 | 0.00 | 1.02 | 0.00 | 100 | 1011.1 |
| 20260510054537 | 9 | 130 | 0.0 | 0.0 | 0.00 | 1.02 | 0.00 | 100 | 1011.1 |
| 20260510054038 | 9 | 130 | 0.0 | 0.0 | 0.00 | 1.02 | 0.00 | 100 | 1011.1 |
| 20260510053538 | 9 | 130 | 0.0 | 0.0 | 0.00 | 1.02 | 0.00 | 100 | 1011.1 |
| 20260510053039 | 9 | 134 | 0.0 | 0.0 | 0.00 | 1.02 | 0.00 | 100 | 1011.2 |
| 20260510052539 | 9 | 134 | 0.0 | 0.0 | 0.00 | 1.02 | 0.00 | 100 | 1011.2 |
| 20260510052100 | 9 | 134 | 0.0 | 1.6 | 0.00 | 1.02 | 0.00 | 100 | 1011.2 |
| 20260510051031 | 9 | 134 | 0.0 | 4.8 | 0.00 | 1.02 | 0.00 | 100 | 1011.1 |
| 20260510050531 | 9 | 134 | 0.0 | 4.8 | 0.00 | 1.02 | 0.00 | 100 | 1011.2 |
| 20260510050052 | 9 | 132 | 0.0 | 0.0 | 0.00 | 1.02 | 0.00 | 100 | 1011.3 |
| 20260510045533 | 9 | 132 | 0.0 | 0.0 | 0.00 | 1.02 | 0.00 | 100 | 1011.3 |
| 20260510045033 | 9 | 132 | 0.0 | 0.0 | 0.00 | 1.02 | 0.00 | 100 | 1011.3 |
| 20260510044555 | 10 | 132 | 0.0 | 0.0 | 0.00 | 1.02 | 0.00 | 100 | 1011.2 |
| 20260510043524 | 10 | 132 | 0.0 | 3.2 | 0.00 | 1.02 | 0.00 | 100 | 1011.2 |
| 20260510043029 | 10 | 132 | 0.0 | 6.4 | 0.00 | 1.02 | 0.00 | 100 | 1011.3 |
| 20260510042551 | 10 | 132 | 1.6 | 6.4 | 0.00 | 1.02 | 0.00 | 100 | 1011.3 |
| 20260510042029 | 10 | 138 | 0.0 | 3.2 | 0.00 | 1.02 | 0.00 | 100 | 1011.2 |
| 20260510041530 | 10 | 138 | 0.0 | 0.0 | 0.00 | 1.02 | 0.00 | 100 | 1011.2 |
| 20260510041030 | 10 | 138 | 0.0 | 4.8 | 0.00 | 1.02 | 0.00 | 100 | 1011.1 |
| 20260510040531 | 10 | 138 | 0.0 | 4.8 | 0.00 | 1.02 | 0.00 | 100 | 1011.2 |
| 20260510040032 | 10 | 140 | 0.0 | 3.2 | 0.00 | 1.02 | 0.00 | 100 | 1011.2 |
| 20260510035534 | 10 | 140 | 0.0 | 1.6 | 0.00 | 1.02 | 1.02 | 100 | 1011.1 |
| 20260510035056 | 10 | 140 | 0.0 | 1.6 | 0.00 | 1.02 | 1.02 | 100 | 1011.1 |
| 20260510034534 | 10 | 140 | 0.0 | 3.2 | 0.00 | 1.02 | 1.02 | 100 | 1011.2 |
| 20260510034055 | 10 | 140 | 1.6 | 3.2 | 0.00 | 1.02 | 1.02 | 100 | 1011.3 |
| 20260510033534 | 10 | 140 | 0.0 | 1.6 | 0.00 | 1.02 | 1.02 | 100 | 1011.3 |
| 20260510033035 | 10 | 140 | 0.0 | 1.6 | 0.00 | 1.02 | 1.02 | 100 | 1011.3 |
| 20260510032534 | 10 | 140 | 0.0 | 1.6 | 0.00 | 1.02 | 1.02 | 100 | 1011.3 |
| 20260510032036 | 10 | 140 | 0.0 | 1.6 | 0.00 | 1.02 | 1.02 | 100 | 1011.3 |
| 20260510031536 | 10 | 140 | 0.0 | 1.6 | 0.00 | 1.02 | 1.02 | 100 | 1011.4 |
| 20260510031037 | 10 | 140 | 0.0 | 0.0 | 0.00 | 1.02 | 1.02 | 100 | 1011.3 |
| 20260510030537 | 10 | 140 | 0.0 | 0.0 | 0.00 | 1.02 | 1.02 | 100 | 1011.4 |
| 20260510030038 | 10 | 140 | 0.0 | 3.2 | 0.00 | 1.02 | 1.02 | 100 | 1011.4 |
| 20260510025543 | 10 | 140 | 0.0 | 3.2 | 0.00 | 1.02 | 1.02 | 100 | 1011.4 |
| 20260510025044 | 10 | 140 | 0.0 | 1.6 | 0.00 | 1.02 | 1.02 | 100 | 1011.4 |
| 20260510024543 | 10 | 140 | 0.0 | 1.6 | 0.00 | 1.02 | 1.02 | 100 | 1011.4 |
| 20260510024044 | 10 | 140 | 0.0 | 1.6 | 0.00 | 1.02 | 1.02 | 100 | 1011.3 |
| 20260510023605 | 10 | 140 | 0.0 | 1.6 | 0.00 | 1.02 | 1.02 | 100 | 1011.3 |
| 20260510023025 | 10 | 140 | 0.0 | 4.8 | 0.00 | 1.02 | 1.02 | 100 | 1011.1 |
| 20260510022525 | 10 | 140 | 0.0 | 4.8 | 0.00 | 1.02 | 1.02 | 100 | 1011.2 |
| 20260510022026 | 10 | 141 | 0.0 | 1.6 | 0.00 | 1.02 | 1.02 | 100 | 1011.1 |
| 20260510021525 | 10 | 141 | 0.0 | 0.0 | 0.00 | 1.02 | 1.02 | 100 | 1011.2 |
| 20260510021026 | 10 | 141 | 0.0 | 1.6 | 0.00 | 1.02 | 1.02 | 100 | 1011.2 |
| 20260510020547 | 10 | 141 | 0.0 | 3.2 | 0.00 | 1.02 | 1.02 | 100 | 1011.2 |
| 20260510020026 | 10 | 141 | 0.0 | 3.2 | 0.00 | 1.02 | 1.02 | 100 | 1011.2 |
| 20260510015526 | 10 | 141 | 1.6 | 3.2 | 0.00 | 1.02 | 1.02 | 100 | 1011.3 |
| 20260510015046 | 10 | 141 | 0.0 | 4.8 | 0.00 | 1.02 | 1.02 | 100 | 1011.3 |
| 20260510014525 | 10 | 141 | 1.6 | 4.8 | 0.00 | 1.02 | 1.02 | 100 | 1011.3 |
| 20260510014029 | 10 | 140 | 1.6 | 3.2 | 0.00 | 1.02 | 1.02 | 100 | 1011.3 |
| 20260510013530 | 10 | 140 | 0.0 | 0.0 | 0.00 | 1.02 | 1.02 | 100 | 1011.4 |
| 20260510013032 | 10 | 140 | 0.0 | 0.0 | 0.00 | 1.02 | 1.02 | 100 | 1011.4 |
| 20260510012551 | 10 | 140 | 0.0 | 0.0 | 0.00 | 1.02 | 1.02 | 100 | 1011.3 |
| 20260510012051 | 10 | 140 | 0.0 | 0.0 | 0.00 | 1.02 | 1.02 | 100 | 1011.3 |
| 20260510011531 | 10 | 140 | 0.0 | 0.0 | 0.00 | 1.02 | 1.02 | 100 | 1011.3 |
| 20260510011032 | 10 | 140 | 0.0 | 3.2 | 0.00 | 1.02 | 1.02 | 100 | 1011.2 |
| 20260510010551 | 10 | 140 | 0.0 | 8.0 | 0.00 | 1.02 | 1.02 | 100 | 1011.1 |
| 20260510010030 | 10 | 153 | 3.2 | 8.0 | 0.00 | 1.02 | 1.02 | 100 | 1011.0 |
| 20260510005530 | 10 | 155 | 0.0 | 8.0 | 0.00 | 1.02 | 1.02 | 100 | 1010.9 |
| 20260510005031 | 10 | 155 | 1.6 | 8.0 | 0.00 | 1.02 | 1.02 | 100 | 1010.8 |
| 20260510004530 | 10 | 120 | 1.6 | 4.8 | 0.00 | 1.02 | 1.02 | 100 | 1010.8 |
| 20260510004052 | 10 | 120 | 3.2 | 6.4 | 0.00 | 1.02 | 1.02 | 100 | 1010.8 |
| 20260510003531 | 10 | 119 | 1.6 | 6.4 | 0.00 | 1.02 | 1.02 | 100 | 1010.7 |
| 20260510003031 | 10 | 109 | 1.6 | 3.2 | 0.00 | 1.02 | 1.02 | 100 | 1010.6 |
| 20260510002042 | 10 | 109 | 0.0 | 3.2 | 0.00 | 1.02 | 1.02 | 100 | 1010.6 |
| 20260510001531 | 10 | 109 | 1.6 | 3.2 | 0.00 | 1.02 | 1.02 | 100 | 1010.6 |
| 20260510001052 | 10 | 109 | 0.0 | 9.7 | 0.00 | 1.02 | 1.02 | 100 | 1010.6 |
| 20260510000531 | 10 | 149 | 0.0 | 8.0 | 0.00 | 1.02 | 1.02 | 100 | 1010.5 |
| 20260510000032 | 10 | 142 | 0.0 | 0.0 | 0.00 | 1.02 | 1.02 | 100 | 1010.5 |
| 20260509235536 | 10 | 142 | 0.0 | 1.6 | 0.00 | 1.02 | 1.02 | 100 | 1010.4 |
| 20260509235037 | 10 | 142 | 0.0 | 4.8 | 0.00 | 1.02 | 1.02 | 100 | 1010.4 |
| 20260509234559 | 10 | 142 | 1.6 | 3.2 | 0.00 | 1.02 | 1.02 | 100 | 1010.5 |
| 20260509234038 | 10 | 142 | 1.6 | 3.2 | 0.00 | 1.02 | 1.02 | 100 | 1010.4 |
| 20260509233539 | 10 | 142 | 0.0 | 3.2 | 0.00 | 1.02 | 1.02 | 100 | 1010.4 |
| 20260509233039 | 10 | 142 | 0.0 | 3.2 | 0.00 | 1.02 | 1.02 | 100 | 1010.4 |
| 20260509232540 | 10 | 142 | 0.0 | 4.8 | 0.00 | 1.02 | 1.02 | 100 | 1010.3 |
| 20260509232100 | 10 | 140 | 0.0 | 1.6 | 0.00 | 1.02 | 1.02 | 100 | 1010.3 |
| 20260509231600 | 10 | 140 | 0.0 | 3.2 | 0.00 | 1.02 | 1.02 | 100 | 1010.3 |
| 20260509231040 | 10 | 140 | 1.6 | 3.2 | 0.00 | 1.02 | 1.02 | 100 | 1010.5 |
| 20260509230541 | 10 | 140 | 1.6 | 4.8 | 0.00 | 1.02 | 1.02 | 100 | 1010.5 |
| 20260509230041 | 10 | 142 | 1.6 | 8.0 | 0.00 | 1.02 | 1.02 | 100 | 1010.4 |
| 20260509225543 | 10 | 165 | 3.2 | 8.0 | 0.03 | 1.02 | 1.02 | 100 | 1010.5 |
| 20260509225103 | 10 | 159 | 0.0 | 4.8 | 0.03 | 1.02 | 1.02 | 100 | 1010.6 |
| 20260509224544 | 10 | 170 | 1.6 | 6.4 | 0.05 | 1.02 | 1.02 | 100 | 1010.5 |
| 20260509224104 | 10 | 171 | 3.2 | 6.4 | 0.10 | 1.02 | 1.02 | 100 | 1010.5 |
| 20260509223604 | 10 | 167 | 1.6 | 9.7 | 0.13 | 1.02 | 1.02 | 100 | 1010.6 |
| 20260509223105 | 10 | 95 | 1.6 | 4.8 | 0.15 | 1.02 | 1.02 | 100 | 1010.7 |
| 20260509222544 | 10 | 88 | 0.0 | 6.4 | 0.18 | 1.02 | 1.02 | 100 | 1010.8 |
| 20260509222027 | 10 | 87 | 0.0 | 4.8 | 0.20 | 1.02 | 1.02 | 100 | 1010.8 |
| 20260509221529 | 10 | 86 | 0.0 | 0.0 | 0.20 | 1.02 | 1.02 | 100 | 1011.0 |
| 20260509221050 | 10 | 86 | 0.0 | 0.0 | 0.23 | 1.02 | 1.02 | 100 | 1011.1 |
| 20260509220529 | 10 | 86 | 0.0 | 3.2 | 0.23 | 1.02 | 1.02 | 100 | 1011.1 |
| 20260509220028 | 10 | 86 | 0.0 | 4.8 | 0.23 | 1.02 | 1.02 | 100 | 1011.1 |
| 20260509215529 | 10 | 86 | 1.6 | 4.8 | 0.23 | 0.99 | 0.99 | 100 | 1011.0 |
| 20260509215029 | 10 | 85 | 1.6 | 4.8 | 0.23 | 0.99 | 0.99 | 100 | 1011.1 |
| 20260509214530 | 10 | 85 | 1.6 | 6.4 | 0.20 | 0.97 | 0.97 | 100 | 1011.2 |
| 20260509214029 | 11 | 136 | 1.6 | 6.4 | 0.15 | 0.91 | 0.91 | 100 | 1011.2 |
| 20260509213041 | 11 | 88 | 0.0 | 1.6 | 0.13 | 0.86 | 0.86 | 100 | 1011.2 |
| 20260509212541 | 11 | 88 | 0.0 | 4.8 | 0.10 | 0.84 | 0.84 | 100 | 1011.3 |
| 20260509212042 | 11 | 88 | 1.6 | 4.8 | 0.08 | 0.81 | 0.81 | 100 | 1011.1 |
| 20260509211542 | 11 | 87 | 0.0 | 0.0 | 0.10 | 0.81 | 0.81 | 100 | 1011.0 |
| 20260509211104 | 11 | 87 | 0.0 | 0.0 | 0.08 | 0.79 | 0.79 | 100 | 1011.0 |
| 20260509210542 | 11 | 87 | 0.0 | 0.0 | 0.10 | 0.79 | 0.79 | 100 | 1011.0 |
| 20260509210043 | 11 | 87 | 0.0 | 0.0 | 0.13 | 0.79 | 0.79 | 100 | 1011.0 |
| 20260509205528 | 11 | 87 | 0.0 | 3.2 | 0.13 | 0.76 | 0.76 | 100 | 1011.0 |
| 20260509205029 | 11 | 87 | 0.0 | 3.2 | 0.15 | 0.76 | 0.76 | 100 | 1011.2 |
| 20260509204530 | 11 | 87 | 0.0 | 4.8 | 0.28 | 0.76 | 0.76 | 100 | 1011.1 |
| 20260509204029 | 11 | 87 | 0.0 | 4.8 | 0.30 | 0.76 | 0.76 | 100 | 1011.2 |
| 20260509203529 | 11 | 87 | 0.0 | 6.4 | 0.33 | 0.74 | 0.74 | 100 | 1011.3 |
| 20260509203030 | 11 | 87 | 0.0 | 6.4 | 0.36 | 0.74 | 0.74 | 100 | 1011.3 |